QPF
0.00 0.00 0.00 0.00 0.00 0.00 0.00 0.00 0.00 0.00 0.00 0.00 0.00 0.00 0.00 0.00 0.00 0.00 0.00 0.00 0.00 0.00 0.00 0.00 0.01 0.01 0.01 0.01 0.01 0.01 0.01 0.01 0.01 0.01 0.01 0.01 0.01 0.02 0.03 0.03 0.02 0.01 0.02
0.00 0.00 0.00 0.00 0.00 0.00 0.00 0.00 0.00 0.00 0.00 0.00 0.00 0.00 0.00 0.00 0.00 0.00 0.00 0.00 0.00 0.00 0.00 0.00 0.00 0.01 0.01 0.00 0.00 0.00 0.01 0.00 0.00 0.01 0.01 0.01 0.01 0.02 0.02 0.02 0.01 0.01 0.02
0.00 0.00 0.00 0.00 0.00 0.00 0.00 0.00 0.00 0.00 0.00 0.00 0.00 0.00 0.00 0.00 0.00 0.00 0.00 0.00 0.00 0.00 0.00 0.00 0.00 0.00 0.01 0.00 0.00 0.00 0.00 0.00 0.01 0.01 0.01 0.01 0.01 0.03 0.01 0.01 0.01 0.01 0.02
0.00 0.00 0.00 0.00 0.00 0.00 0.00 0.00 0.00 0.00 0.00 0.00 0.00 0.00 0.00 0.00 0.00 0.00 0.00 0.00 0.00 0.00 0.00 0.00 0.00 0.00 0.00 0.00 0.00 0.00 0.00 0.00 0.01 0.00 0.00 0.00 0.01 0.03 0.02 0.01 0.01 0.01 0.01
0.00 0.00 0.00 0.00 0.00 0.00 0.00 0.00 0.00 0.00 0.00 0.00 0.00 0.00 0.00 0.00 0.00 0.00 0.00 0.00 0.00 0.00 0.00 0.00 0.00 0.00 0.00 0.00 0.00 0.00 0.00 0.00 0.00 0.00 0.00 0.00 0.01 0.02 0.01 0.00 0.01 0.01 0.01
0.00 0.00 0.00 0.00 0.00 0.00 0.00 0.00 0.00 0.00 0.00 0.00 0.00 0.00 0.00 0.00 0.00 0.00 0.00 0.00 0.00 0.00 0.00 0.00 0.00 0.00 0.00 0.00 0.00 0.00 0.00 0.00 0.01 0.01 0.00 0.00 0.01 0.01 0.01 0.00 0.00 0.01 0.00
0.00 0.00 0.00 0.00 0.00 0.00 0.00 0.00 0.00 0.00 0.00 0.00 0.00 0.00 0.00 0.00 0.00 0.00 0.00 0.00 0.01 0.01 0.00 0.00 0.00 0.00 0.00 0.00 0.00 0.00 0.01 0.01 0.01 0.01 0.00 0.00 0.00 0.01 0.01 0.01 0.00 0.00 0.00
0.00 0.00 0.00 0.01 0.01 0.01 0.01 0.01 0.01 0.01 0.01 0.01 0.01 0.01 0.01 0.01 0.01 0.01 0.00 0.00 0.01 0.01 0.01 0.01 0.00 0.00 0.00 0.00 0.00 0.00 0.00 0.01 0.01 0.01 0.00 0.00 0.01 0.02 0.02 0.01 0.01 0.00 0.00
0.00 0.00 0.00 0.01 0.01 0.01 0.01 0.01 0.01 0.02 0.02 0.02 0.02 0.02 0.02 0.02 0.01 0.01 0.01 0.01 0.01 0.01 0.01 0.01 0.00 0.00 0.00 0.00 0.00 0.00 0.00 0.00 0.00 0.00 0.00 0.00 0.01 0.02 0.03 0.01 0.00 0.00 0.00
0.00 0.00 0.00 0.00 0.01 0.01 0.01 0.01 0.01 0.02 0.02 0.02 0.02 0.02 0.02 0.02 0.02 0.02 0.02 0.02 0.02 0.01 0.02 0.01 0.01 0.00 0.00 0.00 0.00 0.00 0.00 0.01 0.00 0.00 0.01 0.01 0.01 0.02 0.03 0.02 0.01 0.01 0.01
0.01 0.00 0.00 0.00 0.00 0.00 0.01 0.01 0.01 0.02 0.02 0.03 0.03 0.02 0.02 0.02 0.02 0.02 0.02 0.03 0.03 0.04 0.04 0.03 0.03 0.02 0.02 0.01 0.01 0.01 0.01 0.00 0.00 0.00 0.00 0.00 0.01 0.03 0.05 0.05 0.03 0.02 0.01
0.04 0.03 0.02 0.01 0.01 0.01 0.01 0.01 0.01 0.02 0.02 0.03 0.03 0.03 0.03 0.02 0.02 0.02 0.03 0.05 0.07 0.10 0.09 0.08 0.07 0.07 0.05 0.04 0.05 0.04 0.01 0.01 0.01 0.00 0.00 0.00 0.01 0.03 0.06 0.07 0.05 0.03 0.02
0.06 0.06 0.04 0.03 0.04 0.04 0.04 0.04 0.06 0.06 0.06 0.06 0.06 0.06 0.05 0.04 0.04 0.04 0.04 0.07 0.11 0.15 0.14 0.16 0.17 0.14 0.10 0.10 0.12 0.06 0.02 0.02 0.01 0.01 0.01 0.00 0.01 0.03 0.07 0.09 0.06 0.05 0.04
0.07 0.09 0.06 0.07 0.09 0.12 0.12 0.14 0.17 0.14 0.13 0.12 0.12 0.11 0.09 0.09 0.10 0.10 0.12 0.15 0.16 0.18 0.21 0.20 0.18 0.18 0.17 0.14 0.11 0.06 0.03 0.01 0.01 0.01 0.01 0.01 0.01 0.03 0.08 0.10 0.08 0.06 0.05
0.12 0.13 0.14 0.15 0.16 0.19 0.22 0.23 0.26 0.27 0.25 0.25 0.28 0.28 0.23 0.21 0.20 0.20 0.19 0.19 0.21 0.21 0.23 0.25 0.24 0.23 0.22 0.19 0.15 0.10 0.05 0.03 0.03 0.03 0.02 0.02 0.03 0.05 0.08 0.11 0.11 0.09 0.08
0.17 0.19 0.22 0.21 0.21 0.22 0.26 0.31 0.38 0.33 0.30 0.32 0.40 0.38 0.34 0.31 0.28 0.30 0.27 0.22 0.21 0.19 0.20 0.23 0.23 0.25 0.24 0.23 0.19 0.14 0.09 0.08 0.07 0.06 0.04 0.03 0.04 0.06 0.08 0.12 0.14 0.13 0.12
0.19 0.20 0.22 0.25 0.26 0.33 0.36 0.38 0.40 0.35 0.31 0.34 0.33 0.34 0.38 0.35 0.29 0.25 0.22 0.20 0.20 0.17 0.16 0.20 0.21 0.22 0.23 0.22 0.20 0.17 0.12 0.10 0.09 0.09 0.09 0.08 0.06 0.07 0.11 0.12 0.14 0.14 0.13
0.17 0.18 0.20 0.24 0.32 0.42 0.39 0.34 0.32 0.29 0.27 0.29 0.33 0.30 0.27 0.24 0.23 0.20 0.18 0.15 0.14 0.13 0.15 0.19 0.21 0.23 0.23 0.22 0.18 0.15 0.13 0.11 0.08 0.07 0.08 0.11 0.12 0.07 0.09 0.14 0.14 0.15 0.16
0.14 0.18 0.20 0.26 0.27 0.30 0.26 0.21 0.19 0.20 0.21 0.17 0.16 0.14 0.14 0.14 0.12 0.12 0.11 0.09 0.09 0.10 0.13 0.15 0.17 0.19 0.19 0.17 0.16 0.14 0.13 0.13 0.10 0.09 0.09 0.09 0.09 0.08 0.06 0.07 0.13 0.15 0.18
0.12 0.12 0.13 0.12 0.12 0.13 0.14 0.15 0.14 0.14 0.12 0.07 0.06 0.06 0.06 0.06 0.05 0.05 0.04 0.04 0.05 0.06 0.07 0.09 0.12 0.13 0.12 0.12 0.13 0.12 0.11 0.12 0.12 0.11 0.09 0.09 0.08 0.07 0.07 0.06 0.07 0.09 0.14
0.06 0.05 0.05 0.05 0.06 0.07 0.07 0.07 0.08 0.07 0.05 0.04 0.03 0.03 0.03 0.02 0.02 0.02 0.02 0.02 0.02 0.04 0.05 0.07 0.08 0.09 0.10 0.12 0.15 0.13 0.11 0.10 0.10 0.08 0.08 0.09 0.08 0.07 0.06 0.06 0.07 0.06 0.07
0.03 0.03 0.02 0.03 0.03 0.03 0.03 0.03 0.03 0.02 0.02 0.01 0.01 0.01 0.01 0.01 0.00 0.01 0.00 0.00 0.00 0.01 0.02 0.04 0.06 0.07 0.07 0.09 0.11 0.12 0.13 0.11 0.09 0.07 0.06 0.06 0.06 0.07 0.06 0.05 0.06 0.08 0.06
0.02 0.01 0.01 0.01 0.01 0.01 0.01 0.01 0.01 0.01 0.00 0.01 0.01 0.01 0.01 0.00 0.00 0.00 0.00 0.00 0.00 0.01 0.01 0.02 0.03 0.05 0.08 0.08 0.07 0.09 0.10 0.09 0.08 0.06 0.05 0.05 0.05 0.06 0.05 0.06 0.06 0.06 0.07
0.01 0.01 0.00 0.00 0.00 0.00 0.00 0.00 0.00 0.00 0.00 0.00 0.00 0.00 0.00 0.00 0.00 0.00 0.00 0.00 0.00 0.02 0.04 0.05 0.04 0.04 0.06 0.09 0.10 0.09 0.08 0.07 0.08 0.06 0.05 0.05 0.06 0.06 0.06 0.06 0.05 0.04 0.04
0.00 0.00 0.00 0.00 0.00 0.00 0.00 0.00 0.00 0.00 0.00 0.00 0.00 0.00 0.00 0.00 0.00 0.00 0.00 0.00 0.00 0.01 0.02 0.04 0.07 0.07 0.06 0.06 0.08 0.11 0.10 0.08 0.07 0.07 0.05 0.05 0.06 0.06 0.07 0.07 0.06 0.04 0.03
0.00 0.00 0.00 0.00 0.00 0.00 0.00 0.00 0.00 0.00 0.00 0.00 0.00 0.00 0.00 0.00 0.00 0.00 0.01 0.00 0.00 0.00 0.00 0.00 0.01 0.04 0.06 0.06 0.08 0.09 0.10 0.10 0.10 0.08 0.08 0.06 0.06 0.06 0.07 0.07 0.06 0.05 0.04
MSLP
1010.07 1009.90 1009.88 1010.05 1010.34 1010.71 1011.08 1011.39 1011.61 1011.74 1011.82 1011.91 1012.06 1012.30 1012.63 1013.03 1013.45 1013.84 1014.16 1014.38 1014.50 1014.56 1014.58 1014.60 1014.65 1014.74 1014.86 1015.01 1015.17 1015.31 1015.44 1015.56 1015.68 1015.82 1015.98 1016.17 1016.38 1016.61 1016.83 1017.04 1017.24 1017.43 1017.61
1009.74 1009.65 1009.73 1009.97 1010.33 1010.76 1011.17 1011.52 1011.76 1011.92 1012.03 1012.14 1012.31 1012.57 1012.91 1013.31 1013.72 1014.09 1014.39 1014.58 1014.69 1014.73 1014.75 1014.78 1014.84 1014.94 1015.07 1015.21 1015.36 1015.48 1015.60 1015.70 1015.82 1015.96 1016.13 1016.34 1016.57 1016.80 1017.03 1017.24 1017.43 1017.61 1017.79
1009.38 1009.38 1009.54 1009.86 1010.29 1010.78 1011.25 1011.63 1011.92 1012.11 1012.24 1012.38 1012.57 1012.84 1013.18 1013.56 1013.95 1014.29 1014.55 1014.72 1014.81 1014.85 1014.87 1014.92 1015.00 1015.12 1015.26 1015.41 1015.55 1015.67 1015.77 1015.87 1015.98 1016.12 1016.30 1016.52 1016.75 1017.00 1017.23 1017.44 1017.62 1017.80 1017.99
1009.06 1009.15 1009.38 1009.78 1010.28 1010.82 1011.32 1011.75 1012.06 1012.28 1012.44 1012.60 1012.80 1013.06 1013.39 1013.75 1014.10 1014.41 1014.64 1014.79 1014.87 1014.92 1014.97 1015.04 1015.16 1015.30 1015.47 1015.63 1015.77 1015.88 1015.97 1016.06 1016.17 1016.31 1016.50 1016.72 1016.96 1017.20 1017.43 1017.64 1017.83 1018.02 1018.22
1008.86 1009.02 1009.32 1009.77 1010.32 1010.89 1011.42 1011.86 1012.19 1012.42 1012.59 1012.75 1012.95 1013.20 1013.51 1013.85 1014.18 1014.46 1014.68 1014.82 1014.92 1014.99 1015.07 1015.18 1015.33 1015.51 1015.70 1015.87 1016.01 1016.12 1016.21 1016.30 1016.40 1016.55 1016.73 1016.95 1017.18 1017.42 1017.65 1017.86 1018.05 1018.25 1018.46
1008.83 1009.04 1009.39 1009.87 1010.44 1011.02 1011.54 1011.97 1012.28 1012.50 1012.66 1012.82 1013.02 1013.26 1013.56 1013.88 1014.20 1014.47 1014.69 1014.85 1014.97 1015.08 1015.20 1015.36 1015.54 1015.75 1015.96 1016.14 1016.29 1016.40 1016.48 1016.57 1016.67 1016.80 1016.98 1017.19 1017.41 1017.64 1017.86 1018.06 1018.27 1018.47 1018.70
1008.98 1009.22 1009.60 1010.09 1010.64 1011.19 1011.68 1012.07 1012.35 1012.54 1012.69 1012.84 1013.03 1013.27 1013.56 1013.88 1014.20 1014.48 1014.71 1014.89 1015.04 1015.19 1015.36 1015.56 1015.78 1016.01 1016.23 1016.42 1016.57 1016.68 1016.76 1016.84 1016.94 1017.07 1017.23 1017.42 1017.63 1017.84 1018.04 1018.24 1018.44 1018.65 1018.90
1009.30 1009.55 1009.92 1010.39 1010.91 1011.40 1011.83 1012.16 1012.40 1012.56 1012.68 1012.83 1013.02 1013.27 1013.57 1013.89 1014.21 1014.50 1014.75 1014.95 1015.14 1015.32 1015.52 1015.74 1015.99 1016.24 1016.47 1016.66 1016.81 1016.92 1017.01 1017.09 1017.18 1017.30 1017.45 1017.63 1017.81 1018.00 1018.18 1018.36 1018.55 1018.77 1019.02
1009.74 1009.99 1010.34 1010.77 1011.23 1011.65 1012.01 1012.27 1012.45 1012.58 1012.70 1012.84 1013.04 1013.30 1013.61 1013.94 1014.26 1014.55 1014.80 1015.02 1015.22 1015.41 1015.63 1015.87 1016.12 1016.38 1016.61 1016.81 1016.97 1017.09 1017.18 1017.27 1017.37 1017.49 1017.63 1017.78 1017.94 1018.10 1018.25 1018.41 1018.59 1018.79 1019.04
1010.24 1010.48 1010.81 1011.18 1011.57 1011.92 1012.19 1012.40 1012.53 1012.64 1012.76 1012.91 1013.12 1013.39 1013.70 1014.02 1014.33 1014.61 1014.84 1015.05 1015.23 1015.42 1015.64 1015.87 1016.13 1016.39 1016.63 1016.83 1017.01 1017.14 1017.25 1017.36 1017.46 1017.58 1017.72 1017.86 1017.99 1018.13 1018.26 1018.39 1018.55 1018.75 1018.99
1010.76 1010.99 1011.28 1011.60 1011.91 1012.18 1012.39 1012.54 1012.65 1012.75 1012.87 1013.04 1013.26 1013.53 1013.83 1014.13 1014.41 1014.64 1014.84 1015.00 1015.15 1015.32 1015.51 1015.74 1015.98 1016.24 1016.49 1016.71 1016.90 1017.06 1017.20 1017.32 1017.45 1017.58 1017.71 1017.84 1017.96 1018.08 1018.19 1018.31 1018.45 1018.64 1018.88
1011.25 1011.46 1011.71 1011.98 1012.23 1012.43 1012.58 1012.70 1012.79 1012.89 1013.02 1013.20 1013.43 1013.69 1013.96 1014.22 1014.44 1014.62 1014.76 1014.87 1014.98 1015.10 1015.27 1015.47 1015.71 1015.97 1016.22 1016.46 1016.67 1016.85 1017.02 1017.17 1017.32 1017.46 1017.59 1017.72 1017.84 1017.94 1018.05 1018.16 1018.30 1018.49 1018.73
1011.67 1011.87 1012.09 1012.30 1012.49 1012.64 1012.75 1012.84 1012.92 1013.03 1013.17 1013.36 1013.58 1013.82 1014.05 1014.26 1014.41 1014.52 1014.60 1014.65 1014.72 1014.81 1014.95 1015.14 1015.37 1015.62 1015.87 1016.12 1016.35 1016.55 1016.73 1016.90 1017.06 1017.21 1017.35 1017.48 1017.60 1017.71 1017.82 1017.94 1018.09 1018.29 1018.54
1012.03 1012.21 1012.39 1012.55 1012.69 1012.79 1012.86 1012.94 1013.02 1013.13 1013.28 1013.46 1013.67 1013.87 1014.06 1014.20 1014.30 1014.35 1014.38 1014.40 1014.44 1014.52 1014.64 1014.82 1015.04 1015.28 1015.53 1015.77 1015.99 1016.19 1016.37 1016.54 1016.69 1016.84 1016.98 1017.10 1017.23 1017.35 1017.48 1017.63 1017.81 1018.03 1018.31
1012.32 1012.47 1012.61 1012.72 1012.80 1012.86 1012.92 1012.98 1013.06 1013.17 1013.32 1013.49 1013.66 1013.83 1013.96 1014.05 1014.11 1014.13 1014.14 1014.16 1014.20 1014.28 1014.42 1014.59 1014.80 1015.03 1015.25 1015.46 1015.65 1015.82 1015.97 1016.11 1016.23 1016.35 1016.47 1016.59 1016.72 1016.85 1017.01 1017.19 1017.41 1017.68 1017.99
1012.55 1012.67 1012.75 1012.81 1012.85 1012.88 1012.91 1012.96 1013.04 1013.15 1013.28 1013.43 1013.56 1013.68 1013.77 1013.83 1013.87 1013.89 1013.92 1013.97 1014.05 1014.17 1014.33 1014.52 1014.71 1014.91 1015.09 1015.25 1015.38 1015.48 1015.56 1015.63 1015.70 1015.77 1015.84 1015.94 1016.05 1016.20 1016.38 1016.61 1016.88 1017.20 1017.56
1012.76 1012.82 1012.85 1012.86 1012.85 1012.86 1012.88 1012.93 1013.00 1013.10 1013.21 1013.31 1013.40 1013.47 1013.53 1013.57 1013.61 1013.67 1013.75 1013.87 1014.02 1014.20 1014.39 1014.59 1014.77 1014.93 1015.05 1015.13 1015.17 1015.18 1015.17 1015.15 1015.13 1015.12 1015.13 1015.18 1015.27 1015.42 1015.62 1015.88 1016.21 1016.58 1016.99
1012.96 1012.96 1012.93 1012.89 1012.85 1012.84 1012.86 1012.90 1012.98 1013.06 1013.14 1013.20 1013.24 1013.27 1013.29 1013.32 1013.38 1013.49 1013.64 1013.84 1014.07 1014.32 1014.56 1014.77 1014.93 1015.05 1015.09 1015.09 1015.03 1014.93 1014.81 1014.68 1014.56 1014.45 1014.39 1014.37 1014.42 1014.54 1014.74 1015.03 1015.40 1015.82 1016.29
1013.18 1013.11 1013.03 1012.95 1012.89 1012.87 1012.89 1012.95 1013.02 1013.09 1013.14 1013.15 1013.14 1013.12 1013.10 1013.12 1013.20 1013.35 1013.58 1013.85 1014.16 1014.47 1014.74 1014.96 1015.11 1015.17 1015.15 1015.06 1014.91 1014.72 1014.50 1014.26 1014.04 1013.83 1013.67 1013.57 1013.55 1013.63 1013.81 1014.10 1014.49 1014.96 1015.47
1013.42 1013.30 1013.17 1013.06 1012.99 1012.98 1013.02 1013.10 1013.18 1013.24 1013.26 1013.22 1013.15 1013.07 1013.02 1013.01 1013.10 1013.27 1013.54 1013.87 1014.22 1014.57 1014.86 1015.08 1015.21 1015.23 1015.16 1015.01 1014.79 1014.52 1014.23 1013.91 1013.60 1013.30 1013.04 1012.84 1012.74 1012.75 1012.89 1013.16 1013.55 1014.03 1014.58
1013.69 1013.53 1013.37 1013.24 1013.17 1013.18 1013.25 1013.36 1013.46 1013.52 1013.51 1013.44 1013.31 1013.17 1013.05 1013.01 1013.06 1013.23 1013.50 1013.84 1014.20 1014.55 1014.84 1015.05 1015.15 1015.15 1015.05 1014.87 1014.63 1014.34 1014.01 1013.64 1013.27 1012.89 1012.55 1012.26 1012.06 1011.98 1012.05 1012.26 1012.62 1013.10 1013.67
1013.99 1013.80 1013.61 1013.48 1013.43 1013.47 1013.58 1013.72 1013.84 1013.91 1013.89 1013.78 1013.60 1013.39 1013.21 1013.10 1013.10 1013.22 1013.44 1013.74 1014.08 1014.39 1014.65 1014.83 1014.91 1014.90 1014.81 1014.64 1014.42 1014.15 1013.82 1013.46 1013.06 1012.63 1012.21 1011.84 1011.54 1011.36 1011.33 1011.46 1011.77 1012.21 1012.77
1014.30 1014.09 1013.90 1013.77 1013.73 1013.80 1013.95 1014.13 1014.28 1014.37 1014.34 1014.21 1013.99 1013.72 1013.47 1013.29 1013.20 1013.24 1013.38 1013.60 1013.85 1014.10 1014.30 1014.44 1014.51 1014.50 1014.43 1014.32 1014.15 1013.94 1013.67 1013.35 1012.95 1012.51 1012.03 1011.58 1011.18 1010.89 1010.75 1010.79 1011.01 1011.39 1011.91
1014.62 1014.40 1014.20 1014.07 1014.05 1014.15 1014.32 1014.53 1014.72 1014.82 1014.81 1014.66 1014.42 1014.11 1013.80 1013.54 1013.36 1013.30 1013.33 1013.44 1013.58 1013.73 1013.86 1013.95 1013.99 1014.00 1013.97 1013.92 1013.84 1013.72 1013.53 1013.27 1012.91 1012.47 1011.97 1011.45 1010.96 1010.57 1010.32 1010.24 1010.36 1010.66 1011.11
1014.92 1014.71 1014.50 1014.38 1014.36 1014.46 1014.65 1014.88 1015.09 1015.21 1015.21 1015.07 1014.82 1014.49 1014.14 1013.81 1013.56 1013.39 1013.31 1013.29 1013.32 1013.36 1013.40 1013.43 1013.44 1013.46 1013.48 1013.50 1013.50 1013.48 1013.38 1013.19 1012.88 1012.46 1011.95 1011.39 1010.84 1010.36 1010.00 1009.82 1009.83 1010.02 1010.38
1015.22 1015.01 1014.80 1014.66 1014.63 1014.72 1014.91 1015.14 1015.35 1015.48 1015.50 1015.38 1015.13 1014.81 1014.44 1014.08 1013.76 1013.50 1013.32 1013.19 1013.11 1013.04 1012.99 1012.95 1012.94 1012.95 1013.00 1013.07 1013.15 1013.20 1013.18 1013.06 1012.81 1012.42 1011.92 1011.35 1010.76 1010.22 1009.79 1009.51 1009.41 1009.50 1009.75
Thickness
5816 5816 5811 5807 5804 5801 5798 5795 5793 5791 5789 5787 5785 5783 5780 5778 5775 5773 5771 5769 5768 5766 5765 5764 5763 5762 5761 5760 5759 5758 5756 5754 5753 5751 5750 5749 5748 5746 5745 5744 5742 5741 5740
5822 5816 5811 5806 5802 5799 5796 5793 5790 5788 5786 5784 5782 5780 5778 5776 5774 5772 5770 5768 5766 5765 5763 5762 5761 5760 5759 5758 5757 5756 5754 5753 5752 5750 5749 5748 5747 5745 5744 5743 5741 5740 5739
5822 5816 5811 5806 5801 5798 5794 5791 5788 5786 5784 5781 5779 5777 5775 5774 5772 5770 5768 5766 5764 5763 5761 5760 5759 5758 5757 5756 5755 5753 5752 5751 5750 5749 5748 5746 5745 5744 5743 5742 5741 5739 5738
5822 5815 5810 5804 5800 5796 5792 5789 5786 5783 5781 5779 5777 5774 5772 5771 5769 5767 5766 5764 5762 5761 5759 5758 5756 5755 5754 5753 5752 5751 5750 5749 5748 5747 5746 5745 5744 5743 5742 5741 5740 5738 5737
5818 5813 5808 5802 5797 5793 5790 5786 5783 5781 5778 5776 5774 5772 5770 5768 5766 5765 5763 5761 5760 5758 5756 5755 5754 5752 5751 5750 5749 5748 5748 5747 5746 5745 5744 5743 5743 5742 5741 5740 5739 5738 5736
5814 5809 5805 5800 5795 5791 5787 5784 5781 5778 5775 5773 5771 5769 5767 5765 5763 5762 5760 5758 5757 5755 5754 5752 5751 5749 5748 5747 5746 5745 5745 5744 5743 5742 5742 5741 5741 5740 5740 5739 5738 5737 5735
5810 5806 5802 5797 5792 5788 5785 5781 5778 5775 5772 5770 5768 5766 5764 5762 5760 5759 5757 5755 5754 5752 5751 5750 5748 5746 5745 5744 5743 5742 5742 5741 5741 5740 5740 5739 5739 5739 5738 5737 5737 5736 5735
5808 5804 5799 5794 5790 5786 5782 5779 5775 5772 5770 5767 5765 5762 5760 5759 5757 5755 5754 5752 5750 5749 5748 5746 5745 5743 5742 5741 5740 5739 5738 5739 5738 5738 5738 5737 5737 5737 5736 5736 5735 5735 5734
5804 5800 5796 5791 5787 5783 5780 5776 5773 5770 5767 5764 5762 5759 5757 5755 5753 5752 5750 5749 5747 5746 5744 5743 5742 5740 5739 5738 5736 5736 5735 5736 5736 5735 5735 5735 5735 5735 5735 5734 5734 5733 5733
5798 5794 5791 5787 5784 5779 5776 5773 5770 5768 5765 5762 5759 5756 5754 5753 5751 5749 5747 5746 5744 5742 5740 5739 5738 5737 5736 5735 5734 5733 5733 5733 5733 5733 5733 5733 5734 5734 5734 5733 5733 5732 5731
5790 5787 5785 5782 5778 5775 5772 5769 5767 5764 5761 5758 5756 5754 5752 5750 5748 5746 5744 5742 5741 5739 5737 5736 5735 5734 5733 5732 5732 5731 5730 5730 5730 5731 5731 5731 5731 5732 5732 5732 5732 5731 5730
5781 5779 5778 5775 5772 5769 5766 5764 5762 5759 5756 5754 5752 5750 5748 5746 5744 5742 5741 5739 5738 5737 5735 5734 5732 5731 5730 5729 5729 5729 5728 5728 5728 5728 5729 5730 5730 5730 5731 5731 5731 5730 5730
5775 5773 5771 5769 5766 5763 5759 5757 5754 5751 5749 5748 5746 5745 5744 5742 5740 5738 5737 5735 5734 5733 5732 5731 5729 5728 5727 5726 5726 5726 5726 5726 5726 5726 5727 5728 5729 5729 5730 5730 5730 5730 5729
5768 5766 5765 5764 5760 5757 5753 5750 5747 5744 5743 5742 5742 5740 5739 5737 5735 5733 5732 5731 5729 5728 5727 5727 5727 5726 5724 5723 5722 5722 5722 5723 5724 5724 5725 5726 5727 5728 5729 5729 5729 5729 5729
5760 5760 5758 5757 5755 5752 5747 5743 5741 5738 5736 5734 5735 5735 5733 5731 5729 5727 5725 5725 5724 5723 5722 5723 5723 5722 5721 5720 5719 5719 5720 5721 5722 5722 5723 5724 5725 5726 5727 5728 5728 5727 5727
5755 5753 5751 5749 5747 5745 5741 5738 5736 5734 5732 5731 5730 5730 5728 5725 5723 5721 5720 5720 5718 5718 5718 5718 5719 5719 5718 5717 5716 5716 5718 5719 5720 5720 5721 5722 5723 5725 5726 5726 5726 5726 5726
5749 5747 5745 5743 5741 5737 5734 5731 5730 5728 5727 5726 5724 5723 5722 5721 5719 5717 5716 5715 5714 5714 5714 5715 5715 5715 5714 5713 5712 5713 5715 5717 5718 5718 5719 5720 5722 5723 5724 5725 5725 5725 5725
5744 5741 5740 5739 5736 5732 5728 5725 5724 5722 5721 5719 5718 5718 5716 5715 5714 5712 5711 5710 5709 5710 5710 5709 5709 5708 5708 5708 5708 5710 5712 5714 5716 5716 5717 5719 5720 5721 5722 5723 5724 5724 5724
5738 5736 5734 5732 5730 5727 5723 5720 5717 5717 5716 5714 5712 5711 5710 5709 5708 5706 5706 5704 5703 5703 5703 5703 5703 5703 5702 5702 5703 5705 5708 5710 5712 5713 5715 5717 5718 5719 5719 5721 5722 5722 5723
5731 5730 5727 5726 5724 5720 5717 5714 5711 5710 5708 5707 5706 5704 5703 5701 5700 5699 5698 5697 5696 5695 5695 5695 5695 5696 5696 5696 5698 5701 5704 5707 5709 5711 5713 5714 5715 5717 5717 5718 5719 5721 5721
5725 5724 5722 5720 5718 5715 5710 5706 5703 5701 5700 5699 5698 5697 5695 5694 5692 5691 5690 5689 5688 5688 5687 5688 5688 5688 5689 5690 5690 5693 5698 5702 5705 5709 5710 5711 5712 5714 5715 5716 5717 5718 5720
5719 5718 5716 5714 5711 5709 5705 5702 5699 5696 5693 5691 5691 5689 5688 5686 5684 5683 5682 5681 5680 5680 5679 5680 5680 5680 5681 5683 5682 5683 5685 5691 5698 5705 5707 5707 5709 5711 5712 5714 5714 5716 5718
5716 5714 5712 5708 5705 5702 5699 5695 5691 5687 5684 5682 5681 5680 5679 5678 5676 5675 5674 5673 5672 5671 5671 5671 5672 5672 5671 5674 5675 5675 5675 5679 5686 5695 5700 5703 5705 5706 5709 5711 5712 5713 5715
5713 5711 5707 5704 5700 5697 5693 5689 5684 5678 5675 5674 5672 5671 5670 5669 5668 5667 5666 5665 5664 5663 5663 5663 5664 5664 5664 5665 5667 5669 5671 5674 5675 5681 5689 5694 5698 5701 5704 5708 5710 5711 5713
5710 5707 5703 5699 5695 5691 5687 5683 5677 5673 5669 5667 5665 5663 5661 5660 5659 5658 5657 5656 5655 5654 5654 5654 5655 5655 5656 5657 5658 5660 5662 5665 5669 5671 5676 5683 5689 5696 5700 5703 5706 5708 5711
5706 5702 5697 5693 5688 5684 5680 5675 5671 5666 5663 5660 5657 5655 5653 5651 5650 5649 5648 5647 5646 5645 5645 5646 5646 5647 5648 5649 5651 5652 5653 5656 5659 5663 5667 5673 5678 5687 5693 5697 5701 5704 5707